This demonstration page uses our WeatherBlox Daily Observations layout. Learn more.

Left ArrowRight Arrow

30.21309, -93.2044

Hourly Observations for April 10, 2022

Temp ( °F °C ) Dew Point ( °F °C ) Humidity (%) Winds ( mph kmh ) Pressure ( in mb ) Visibility ( mi km ) Precip ( " mm )
12:15 am 00:15 Clear 55 12.5 52 11.2 92 92 S 6 9 30.02 1017 10 16 0.00 0.00
12:35 am 00:35 Clear 53 11.9 52 10.9 94 94 S 7 11 30.02 1017 10 16 0.00 0.00
12:55 am 00:55 Clear 55 12.6 53 11.5 93 93 S 7 11 30.01 1016 10 16 0.00 0.00
1:15 am 01:15 Clear 53 11.9 52 10.9 94 94 S 7 11 30.01 1016 10 16 0.00 0.00
1:35 am 01:35 Clear 55 12.7 53 11.7 94 94 S 7 11 30.00 1016 10 16 0.00 0.00
1:55 am 01:55 Clear 53 11.9 52 11 94 94 S 6 9 30.00 1016 10 16 0.00 0.00
2:15 am 02:15 Clear 52 11.1 51 10.3 95 95 SSE 7 11 30.00 1016 10 16 0.00 0.00
2:35 am 02:35 Clear 53 11.7 52 11 96 96 S 5 7 29.99 1016 10 16 0.00 0.00
2:55 am 02:55 Mostly Cloudy with Mist and Fog 53 11.6 52 10.9 96 96 S 5 7 29.99 1016 1 2 0.00 0.00
3:15 am 03:15 Clear with Mist and Fog 54 12.3 53 11.6 96 96 S 3 6 29.99 1016 3 4 0.00 0.00
3:35 am 03:35 Mostly Cloudy with Fog 54 12.4 53 11.7 96 96 SSE 5 7 29.99 1016 1 1 0.00 0.00
3:55 am 03:55 Mostly Cloudy with Fog 52 11 51 10.3 95 95 SSE 6 9 29.99 1016 1 1 0.00 0.00
4:15 am 04:15 Clear with Mist and Fog 53 11.4 51 10.8 96 96 SSE 8 13 29.99 1016 4 6 0.00 0.00
4:35 am 04:35 Clear with Mist and Fog 54 12.2 53 11.6 96 96 S 7 11 29.99 1016 7 11 0.00 0.00
4:55 am 04:55 Mostly Cloudy with Fog 53 11.4 51 10.7 96 96 SSE 7 11 29.98 1015 1 1 0.00 0.00
5:15 am 05:15 Clear 55 12.5 53 11.9 96 96 SSE 7 11 29.98 1015 10 16 0.00 0.00
5:35 am 05:35 Clear 53 11.7 52 11 96 96 SSE 7 11 29.99 1016 10 16 0.00 0.00
6:00 am 06:00 Mostly Clear 55 13 54 12 94 94 SSE 7 11 29.98 1015 10 16 0.00 0.00
6:55 am 06:55 Mostly Sunny 54 12 52 11 94 94 SSE 7 11 29.99 1016 10 16 0.00 0.00
7:47 am 07:47 Mostly Sunny 61 16 59 15 94 94 SSE 7 11 29.99 1016 10 16 0.00 0.00
8:53 am 08:53 Mostly Sunny 68 20 63 17 83 83 S 12 19 30.00 1016 10 16 0.00 0.00
9:55 am 09:55 Partly Cloudy 75 24 61 16 61 61 SSE 24 39 30.00 1016 10 16 0.00 0.00
10:55 am 10:55 Partly Cloudy 75 24 57 14 54 54 S 28 44 30.02 1017 10 16 0.00 0.00
11:53 am 11:53 Partly Cloudy 79 26 57 14 48 48 S 25 41 30.01 1016 10 16 0.00 0.00
12:55 pm 12:55 Partly Cloudy 79 26 57 14 48 48 S 25 41 30.00 1016 10 16 0.00 0.00
1:50 pm 13:50 Partly Cloudy 79 26 59 15 51 51 S 28 44 29.98 1015 10 16 0.00 0.00
2:45 pm 14:45 Partly Cloudy 79 26 57 14 48 48 S 23 37 29.96 1015 10 16 0.00 0.00
3:45 pm 15:45 Mostly Sunny 79 26 57 14 48 48 S 23 37 29.95 1014 10 16 0.00 0.00
4:45 pm 16:45 Mostly Sunny 77 25 57 14 51 51 S 23 37 29.94 1014 10 16 0.00 0.00
5:45 pm 17:45 Mostly Sunny 75 24 57 14 54 54 S 23 37 29.93 1014 10 16 0.00 0.00
6:45 pm 18:45 Mostly Sunny 73 23 59 15 61 61 S 23 37 29.92 1013 10 16 0.00 0.00
7:46 pm 19:46 Hazy 70 21 59 15 69 69 SSE 16 26 29.92 1013 7 11 0.00 0.00
8:45 pm 20:45 Mostly Clear 66 19 61 16 83 83 SSE 12 19 29.93 1014 10 16 0.00 0.00
9:45 pm 21:45 Mostly Cloudy 66 19 61 16 83 83 SSE 14 22 29.94 1014 10 16 0.00 0.00
10:15 pm 22:15 Clear 66 18.8 60 15.8 83 83 SSE 9 15 29.94 1014 10 16 0.00 0.00
10:35 pm 22:35 Clear 65 18.2 60 15.7 85 85 SE 8 13 29.95 1014 10 16 0.00 0.00
10:55 pm 22:55 Clear 65 18.2 60 15.8 86 86 SE 7 11 29.95 1014 10 16 0.00 0.00
11:15 pm 23:15 Clear 64 18 60 15.6 86 86 SE 7 11 29.95 1014 10 16 0.00 0.00
11:35 pm 23:35 Clear 63 17.4 60 15.5 89 89 SE 7 11 29.95 1014 10 16 0.00 0.00
11:55 pm 23:55 Clear 63 17.1 60 15.4 90 90 ESE 6 9 29.94 1014 10 16 0.00 0.00

Powered by AerisWeather